Year,Month,Day,Hour,Minute,Value (Times are PST for barometer in hPa)
2022,01,06,00,00,1011.92
2022,01,06,00,01,1011.89
2022,01,06,00,02,1011.85
2022,01,06,00,03,1011.85
2022,01,06,00,04,1011.79
2022,01,06,00,05,1011.82
2022,01,06,00,06,1011.72
2022,01,06,00,07,1011.72
2022,01,06,00,08,1011.62
2022,01,06,00,09,1011.51
2022,01,06,00,10,1011.41
2022,01,06,00,11,1011.18
2022,01,06,00,12,1011.18
2022,01,06,00,13,1011.07
2022,01,06,00,14,1011.07
2022,01,06,00,15,1011.01
2022,01,06,00,16,1010.94
2022,01,06,00,17,1010.94
2022,01,06,00,18,1010.97
2022,01,06,00,19,1011.01
2022,01,06,00,20,1010.97
2022,01,06,00,21,1010.87
2022,01,06,00,22,1010.94
2022,01,06,00,23,1010.84
2022,01,06,00,24,1010.74
2022,01,06,00,25,1010.74
2022,01,06,00,26,1010.67
2022,01,06,00,27,1010.67
2022,01,06,00,28,1010.74
2022,01,06,00,29,1010.84
2022,01,06,00,30,1010.77
2022,01,06,00,31,1010.80
2022,01,06,00,32,1010.74
2022,01,06,00,33,1010.84
2022,01,06,00,34,1010.74
2022,01,06,00,35,1010.74
2022,01,06,00,36,1010.63
2022,01,06,00,37,1010.70
2022,01,06,00,38,1010.67
2022,01,06,00,39,1010.70
2022,01,06,00,40,1010.67
2022,01,06,00,41,1010.74
2022,01,06,00,42,1010.63
2022,01,06,00,43,1010.60
2022,01,06,00,44,1010.67
2022,01,06,00,45,1010.57
2022,01,06,00,46,1010.63
2022,01,06,00,47,1010.84
2022,01,06,00,48,1010.80
2022,01,06,00,49,1010.77
2022,01,06,00,50,1010.70
2022,01,06,00,51,1010.63
2022,01,06,00,52,1010.57
2022,01,06,00,53,1010.43
2022,01,06,00,54,1010.33
2022,01,06,00,55,1010.30
2022,01,06,00,56,1010.33
2022,01,06,00,57,1010.40
2022,01,06,00,58,1010.36
2022,01,06,00,59,1010.33
2022,01,06,01,00,1010.19
2022,01,06,01,01,1010.13
2022,01,06,01,02,1010.13
2022,01,06,01,03,1010.16
2022,01,06,01,04,1010.23
2022,01,06,01,05,1010.13
2022,01,06,01,06,1010.16
2022,01,06,01,07,1010.06
2022,01,06,01,08,1010.09
2022,01,06,01,09,1009.99
2022,01,06,01,10,1009.99
2022,01,06,01,11,1009.92
2022,01,06,01,12,1010.02
2022,01,06,01,13,1010.09
2022,01,06,01,14,1010.02
2022,01,06,01,15,1009.96
2022,01,06,01,16,1009.96
2022,01,06,01,17,1009.86
2022,01,06,01,18,1009.79
2022,01,06,01,19,1009.82
2022,01,06,01,20,1009.79
2022,01,06,01,21,1009.92
2022,01,06,01,22,1009.92
2022,01,06,01,23,1009.89
2022,01,06,01,24,1009.92
2022,01,06,01,25,1009.86
2022,01,06,01,26,1009.75
2022,01,06,01,27,1009.65
2022,01,06,01,28,1009.66
2022,01,06,01,29,1009.82
2022,01,06,01,30,1009.86
2022,01,06,01,31,1009.86
2022,01,06,01,32,1009.82
2022,01,06,01,33,1009.79
2022,01,06,01,34,1009.79
2022,01,06,01,35,1009.75
2022,01,06,01,36,1009.79
2022,01,06,01,37,1009.75
2022,01,06,01,38,1009.69
2022,01,06,01,39,1009.65
2022,01,06,01,40,1009.48
2022,01,06,01,41,1009.35
2022,01,06,01,42,1009.31
2022,01,06,01,43,1009.31
2022,01,06,01,44,1009.21
2022,01,06,01,45,1009.18
2022,01,06,01,46,1009.18
2022,01,06,01,47,1009.18
2022,01,06,01,48,1009.18
2022,01,06,01,49,1009.25
2022,01,06,01,50,1009.14
2022,01,06,01,51,1009.08
2022,01,06,01,52,1009.21
2022,01,06,01,53,1009.28
2022,01,06,01,54,1009.38
2022,01,06,01,55,1009.42
2022,01,06,01,56,1009.46
2022,01,06,01,57,1009.62
2022,01,06,01,58,1009.65
2022,01,06,01,59,1009.48
2022,01,06,02,00,1009.38
2022,01,06,02,01,1009.45
2022,01,06,02,02,1009.45
2022,01,06,02,03,1009.42
2022,01,06,02,04,1009.38
2022,01,06,02,05,1009.42
2022,01,06,02,06,1009.42
2022,01,06,02,07,1009.31
2022,01,06,02,08,1009.38
2022,01,06,02,09,1009.31
2022,01,06,02,10,1009.28
2022,01,06,02,11,1009.18
2022,01,06,02,12,1009.21
2022,01,06,02,13,1009.31
2022,01,06,02,14,1009.48
2022,01,06,02,15,1009.55
2022,01,06,02,16,1009.48
2022,01,06,02,17,1009.58
2022,01,06,02,18,1009.62
2022,01,06,02,19,1009.55
2022,01,06,02,20,1009.42
2022,01,06,02,21,1009.31
2022,01,06,02,22,1009.14
2022,01,06,02,23,1009.08
2022,01,06,02,24,1009.04
2022,01,06,02,25,1009.11
2022,01,06,02,26,1009.21
2022,01,06,02,27,1009.11
2022,01,06,02,28,1008.94
2022,01,06,02,29,1008.74
2022,01,06,02,30,1008.97
2022,01,06,02,31,1009.36
2022,01,06,02,32,1009.55
2022,01,06,02,33,1009.65
2022,01,06,02,34,1009.45
2022,01,06,02,35,1009.21
2022,01,06,02,36,1009.14
2022,01,06,02,37,1009.25
2022,01,06,02,38,1009.38
2022,01,06,02,39,1009.45
2022,01,06,02,40,1009.38
2022,01,06,02,41,1009.38
2022,01,06,02,42,1009.25
2022,01,06,02,43,1009.25
2022,01,06,02,44,1009.28
2022,01,06,02,45,1009.18
2022,01,06,02,46,1009.21
2022,01,06,02,47,1009.21
2022,01,06,02,48,1009.11
2022,01,06,02,49,1008.87
2022,01,06,02,50,1008.84
2022,01,06,02,51,1008.84
2022,01,06,02,52,1008.84
2022,01,06,02,53,1008.70
2022,01,06,02,54,1008.81
2022,01,06,02,55,1008.81
2022,01,06,02,56,1008.74
2022,01,06,02,57,1008.70
2022,01,06,02,58,1008.74
2022,01,06,02,59,1008.81
2022,01,06,03,00,1008.77
2022,01,06,03,01,1008.77
2022,01,06,03,02,1008.74
2022,01,06,03,03,1008.74
2022,01,06,03,04,1008.74
2022,01,06,03,05,1008.70
2022,01,06,03,06,1008.74
2022,01,06,03,07,1008.74
2022,01,06,03,08,1008.67
2022,01,06,03,09,1008.67
2022,01,06,03,10,1008.67
2022,01,06,03,11,1008.57
2022,01,06,03,12,1008.57
2022,01,06,03,13,1008.60
2022,01,06,03,14,1008.57
2022,01,06,03,15,1008.53
2022,01,06,03,16,1008.60
2022,01,06,03,17,1008.60
2022,01,06,03,18,1008.53
2022,01,06,03,19,1008.47
2022,01,06,03,20,1008.30
2022,01,06,03,21,1008.43
2022,01,06,03,22,1008.33
2022,01,06,03,23,1008.30
2022,01,06,03,24,1008.23
2022,01,06,03,25,1008.20
2022,01,06,03,26,1008.23
2022,01,06,03,27,1008.06
2022,01,06,03,28,1007.93
2022,01,06,03,29,1007.82
2022,01,06,03,30,1007.76
2022,01,06,03,31,1007.79
2022,01,06,03,32,1007.86
2022,01,06,03,33,1007.65
2022,01,06,03,34,1007.69
2022,01,06,03,35,1007.62
2022,01,06,03,36,1007.62
2022,01,06,03,37,1007.65
2022,01,06,03,38,1007.59
2022,01,06,03,39,1007.59
2022,01,06,03,40,1007.62
2022,01,06,03,41,1007.62
2022,01,06,03,42,1007.62
2022,01,06,03,43,1007.76
2022,01,06,03,44,1007.82
2022,01,06,03,45,1007.86
2022,01,06,03,46,1007.89
2022,01,06,03,47,1007.86
2022,01,06,03,48,1007.76
2022,01,06,03,49,1007.72
2022,01,06,03,50,1007.76
2022,01,06,03,51,1007.65
2022,01,06,03,52,1007.65
2022,01,06,03,53,1007.65
2022,01,06,03,54,1007.38
2022,01,06,03,55,1007.38
2022,01,06,03,56,1007.32
2022,01,06,03,57,1007.32
2022,01,06,03,58,1007.32
2022,01,06,03,59,1007.21
2022,01,06,04,00,1007.25
2022,01,06,04,01,1007.18
2022,01,06,04,02,1007.25
2022,01,06,04,03,1007.21
2022,01,06,04,04,1007.18
2022,01,06,04,05,1007.18
2022,01,06,04,06,1007.18
2022,01,06,04,07,1007.15
2022,01,06,04,08,1007.21
2022,01,06,04,09,1007.25
2022,01,06,04,10,1007.21
2022,01,06,04,11,1007.21
2022,01,06,04,12,1007.25
2022,01,06,04,13,1007.28
2022,01,06,04,14,1007.28
2022,01,06,04,15,1007.38
2022,01,06,04,16,1007.35
2022,01,06,04,17,1007.38
2022,01,06,04,18,1007.28
2022,01,06,04,19,1007.32
2022,01,06,04,20,1007.21
2022,01,06,04,21,1007.11
2022,01,06,04,22,1007.08
2022,01,06,04,23,1007.01
2022,01,06,04,24,1007.04
2022,01,06,04,25,1006.98
2022,01,06,04,26,1006.84
2022,01,06,04,27,1006.88
2022,01,06,04,28,1006.81
2022,01,06,04,29,1006.91
2022,01,06,04,30,1006.98
2022,01,06,04,31,1006.91
2022,01,06,04,32,1006.94
2022,01,06,04,33,1006.91
2022,01,06,04,34,1006.84
2022,01,06,04,35,1006.84
2022,01,06,04,36,1006.74
2022,01,06,04,37,1006.77
2022,01,06,04,38,1006.71
2022,01,06,04,39,1006.71
2022,01,06,04,40,1006.74
2022,01,06,04,41,1006.67
2022,01,06,07,20,1004.57
2022,01,06,07,21,1004.54
2022,01,06,07,22,1004.61
2022,01,06,07,23,1004.64
2022,01,06,07,24,1004.57
2022,01,06,07,25,1004.61
2022,01,06,07,26,1004.54
2022,01,06,07,27,1004.54
2022,01,06,07,28,1004.50
2022,01,06,07,29,1004.61
2022,01,06,07,30,1004.61
2022,01,06,07,31,1004.50
2022,01,06,07,32,1004.47
2022,01,06,07,33,1004.47
2022,01,06,07,34,1004.57
2022,01,06,07,35,1004.47
2022,01,06,07,36,1004.40
2022,01,06,07,37,1004.40
2022,01,06,07,38,1004.34
2022,01,06,07,39,1004.37
2022,01,06,07,40,1004.37
2022,01,06,07,41,1004.34
2022,01,06,07,42,1004.27
2022,01,06,07,43,1004.30
2022,01,06,07,44,1004.40
2022,01,06,07,45,1004.44
2022,01,06,07,46,1004.37
2022,01,06,07,47,1004.34
2022,01,06,07,48,1004.17
2022,01,06,07,49,1004.06
2022,01,06,07,50,1004.06
2022,01,06,07,51,1004.10
2022,01,06,07,52,1004.10
2022,01,06,07,53,1004.10
2022,01,06,07,54,1004.03
2022,01,06,07,55,1004.06
2022,01,06,07,56,1004.06
2022,01,06,07,57,1004.23
2022,01,06,07,58,1004.17
2022,01,06,07,59,1004.23
2022,01,06,08,00,1004.23
2022,01,06,08,01,1004.13
2022,01,06,08,02,1004.10
2022,01,06,08,03,1004.20
2022,01,06,08,04,1004.23
2022,01,06,08,05,1004.20
2022,01,06,08,06,1004.20
2022,01,06,08,07,1004.23
2022,01,06,08,08,1004.27
2022,01,06,08,09,1004.37
2022,01,06,08,10,1004.40
2022,01,06,08,11,1004.47
2022,01,06,08,12,1004.37
2022,01,06,08,13,1004.34
2022,01,06,08,14,1004.27
2022,01,06,08,15,1004.27
2022,01,06,08,16,1004.30
2022,01,06,08,17,1004.37
2022,01,06,08,18,1004.34
2022,01,06,08,19,1004.37
2022,01,06,08,20,1004.23
2022,01,06,08,21,1004.17
2022,01,06,08,22,1004.20
2022,01,06,08,23,1004.30
2022,01,06,08,24,1004.27
2022,01,06,08,25,1004.20
2022,01,06,08,26,1004.17
2022,01,06,08,27,1004.10
2022,01,06,08,28,1004.13
2022,01,06,08,29,1004.27
2022,01,06,08,30,1004.20
2022,01,06,08,31,1004.27
2022,01,06,08,32,1004.30
2022,01,06,08,33,1004.27
2022,01,06,08,34,1004.20
2022,01,06,08,35,1004.06
2022,01,06,08,36,1004.06
2022,01,06,08,37,1004.00
2022,01,06,08,38,1004.03
2022,01,06,08,39,1004.06
2022,01,06,08,40,1004.17
2022,01,06,08,41,1004.10
2022,01,06,08,42,1004.00
2022,01,06,08,43,1003.86
2022,01,06,08,44,1004.00
2022,01,06,08,45,1004.00
2022,01,06,08,46,1004.06
2022,01,06,08,47,1004.03
2022,01,06,08,48,1003.90
2022,01,06,08,49,1003.90
2022,01,06,08,50,1003.93
2022,01,06,08,51,1004.00
2022,01,06,08,52,1004.03
2022,01,06,08,53,1004.00
2022,01,06,08,54,1004.17
2022,01,06,08,55,1004.03
2022,01,06,08,56,1004.03
2022,01,06,08,57,1004.00
2022,01,06,08,58,1003.93
2022,01,06,08,59,1003.93
2022,01,06,09,00,1004.00
2022,01,06,09,01,1004.06
2022,01,06,09,02,1004.10
2022,01,06,09,03,1003.86
2022,01,06,09,04,1003.83
2022,01,06,09,05,1003.93
2022,01,06,09,06,1004.00
2022,01,06,09,07,1004.06
2022,01,06,09,08,1004.00
2022,01,06,09,09,1003.90
2022,01,06,09,10,1003.90
2022,01,06,09,11,1003.86
2022,01,06,09,12,1003.96
2022,01,06,09,13,1004.00
2022,01,06,09,14,1003.93
2022,01,06,09,15,1003.79
2022,01,06,09,16,1003.56
2022,01,06,09,17,1003.56
2022,01,06,09,18,1003.56
2022,01,06,09,19,1003.59
2022,01,06,09,20,1003.66
2022,01,06,09,21,1003.79
2022,01,06,09,22,1003.93
2022,01,06,09,23,1003.96
2022,01,06,09,24,1003.73
2022,01,06,09,25,1003.69
2022,01,06,09,26,1003.62
2022,01,06,09,27,1003.79
2022,01,06,09,28,1003.93
2022,01,06,09,29,1004.10
2022,01,06,09,30,1004.13
2022,01,06,09,31,1004.03
2022,01,06,09,32,1003.96
2022,01,06,09,33,1003.86
2022,01,06,09,34,1003.90
2022,01,06,09,35,1003.90
2022,01,06,09,36,1003.96
2022,01,06,09,37,1003.86
2022,01,06,09,38,1003.86
2022,01,06,09,39,1003.90
2022,01,06,09,40,1004.00
2022,01,06,09,41,1003.93
2022,01,06,09,42,1003.90
2022,01,06,09,43,1003.90
2022,01,06,09,44,1003.79
2022,01,06,09,45,1003.79
2022,01,06,09,46,1003.69
2022,01,06,09,47,1003.69
2022,01,06,09,48,1003.69
2022,01,06,09,49,1003.76
2022,01,06,09,50,1003.79
2022,01,06,09,51,1003.79
2022,01,06,09,52,1003.76
2022,01,06,09,53,1003.66
2022,01,06,09,54,1003.69
2022,01,06,09,55,1003.69
2022,01,06,09,56,1003.79
2022,01,06,09,57,1003.83
2022,01,06,09,58,1003.76
2022,01,06,09,59,1003.79
2022,01,06,10,00,1003.90
2022,01,06,10,01,1003.90
2022,01,06,10,02,1003.83
2022,01,06,10,03,1003.67
2022,01,06,10,04,1003.66
2022,01,06,10,05,1003.93
2022,01,06,10,06,1004.12
2022,01,06,10,07,1004.27
2022,01,06,10,08,1004.03
2022,01,06,10,09,1003.79
2022,01,06,10,10,1003.73
2022,01,06,10,11,1003.83
2022,01,06,10,12,1003.96
2022,01,06,10,13,1004.00
2022,01,06,10,14,1003.80
2022,01,06,10,15,1003.59
2022,01,06,10,16,1003.52
2022,01,06,10,17,1003.73
2022,01,06,10,18,1003.73
2022,01,06,10,19,1003.52
2022,01,06,10,20,1003.46
2022,01,06,10,21,1003.39
2022,01,06,10,22,1003.29
2022,01,06,10,23,1003.29
2022,01,06,10,24,1003.29
2022,01,06,10,25,1003.35
2022,01,06,10,26,1003.35
2022,01,06,10,27,1003.22
2022,01,06,10,28,1003.29
2022,01,06,10,29,1003.32
2022,01,06,10,30,1003.59
2022,01,06,10,31,1003.52
2022,01,06,10,32,1003.25
2022,01,06,10,33,1003.18
2022,01,06,10,34,1003.15
2022,01,06,10,35,1003.15
2022,01,06,10,36,1003.25
2022,01,06,10,37,1003.35
2022,01,06,10,38,1003.29
2022,01,06,10,39,1003.29
2022,01,06,10,40,1003.32
2022,01,06,10,41,1003.18
2022,01,06,10,42,1003.12
2022,01,06,10,43,1003.08
2022,01,06,10,44,1003.08
2022,01,06,10,45,1003.15
2022,01,06,10,46,1003.25
2022,01,06,10,47,1003.29
2022,01,06,10,48,1003.18
2022,01,06,10,49,1003.15
2022,01,06,10,50,1003.18
2022,01,06,10,51,1003.05
2022,01,06,10,52,1003.05
2022,01,06,10,53,1003.15
2022,01,06,10,54,1003.15
2022,01,06,10,55,1003.05
2022,01,06,10,56,1003.05
2022,01,06,10,57,1003.12
2022,01,06,10,58,1003.12
2022,01,06,10,59,1003.01
2022,01,06,11,00,1003.15
2022,01,06,11,01,1003.08
2022,01,06,11,02,1003.15
2022,01,06,11,03,1003.08
2022,01,06,11,04,1002.98
2022,01,06,11,05,1002.81
2022,01,06,11,06,1002.85
2022,01,06,11,07,1002.81
2022,01,06,11,08,1002.78
2022,01,06,11,09,1002.88
2022,01,06,11,10,1002.75
2022,01,06,11,11,1002.68
2022,01,06,11,12,1002.68
2022,01,06,11,13,1002.68
2022,01,06,11,14,1002.61
2022,01,06,11,15,1002.64
2022,01,06,11,16,1002.68
2022,01,06,11,17,1002.61
2022,01,06,11,18,1002.34
2022,01,06,11,19,1002.24
2022,01,06,11,20,1002.30
2022,01,06,11,21,1002.37
2022,01,06,11,22,1002.41
2022,01,06,11,23,1002.17
2022,01,06,11,24,1002.13
2022,01,06,11,25,1002.07
2022,01,06,11,26,1002.24
2022,01,06,11,27,1002.24
2022,01,06,11,28,1002.17
2022,01,06,11,29,1001.93
2022,01,06,11,30,1001.83
2022,01,06,11,31,1001.86
2022,01,06,11,32,1002.07
2022,01,06,11,33,1002.17
2022,01,06,11,34,1002.10
2022,01,06,11,35,1001.93
2022,01,06,11,36,1001.93
2022,01,06,11,37,1002.00
2022,01,06,11,38,1002.07
2022,01,06,11,39,1002.07
2022,01,06,11,40,1001.97
2022,01,06,11,41,1001.90
2022,01,06,11,42,1001.90
2022,01,06,11,43,1001.93
2022,01,06,11,44,1002.06
2022,01,06,11,45,1002.00
2022,01,06,11,46,1002.00
2022,01,06,11,47,1001.86
2022,01,06,11,48,1001.90
2022,01,06,11,49,1001.97
2022,01,06,11,50,1001.97
2022,01,06,11,51,1001.93
2022,01,06,11,52,1001.90
2022,01,06,11,53,1001.86
2022,01,06,11,54,1001.83
2022,01,06,11,55,1001.83
2022,01,06,11,56,1001.76
2022,01,06,11,57,1001.83
2022,01,06,11,58,1001.90
2022,01,06,11,59,1001.90
2022,01,06,12,00,1001.76
2022,01,06,12,01,1001.76
2022,01,06,12,02,1001.66
2022,01,06,12,03,1001.56
2022,01,06,12,04,1001.66
2022,01,06,12,05,1001.63
2022,01,06,12,06,1001.76
2022,01,06,12,07,1001.80
2022,01,06,12,08,1001.83
2022,01,06,12,09,1001.80
2022,01,06,12,10,1001.73
2022,01,06,12,11,1001.66
2022,01,06,12,12,1001.63
2022,01,06,12,13,1001.49
2022,01,06,12,14,1001.49
2022,01,06,12,15,1001.52
2022,01,06,12,16,1001.52
2022,01,06,12,17,1001.52
2022,01,06,12,18,1001.63
2022,01,06,12,19,1001.56
2022,01,06,12,20,1001.49
2022,01,06,12,21,1001.46
2022,01,06,12,22,1001.39
2022,01,06,12,23,1001.25
2022,01,06,12,24,1001.22
2022,01,06,12,25,1001.32
2022,01,06,12,26,1001.49
2022,01,06,12,27,1001.49
2022,01,06,12,28,1001.36
2022,01,06,12,29,1001.29
2022,01,06,12,30,1001.32
2022,01,06,12,31,1001.29
2022,01,06,12,32,1001.32
2022,01,06,12,33,1001.22
2022,01,06,12,34,1001.15
2022,01,06,12,35,1001.08
2022,01,06,12,36,1001.08
2022,01,06,12,37,1001.19
2022,01,06,12,38,1001.19
2022,01,06,12,39,1001.29
2022,01,06,12,40,1001.19
2022,01,06,12,41,1001.02
2022,01,06,12,42,1000.76
2022,01,06,12,43,1000.81
2022,01,06,12,44,1000.95
2022,01,06,12,45,1001.02
2022,01,06,12,46,1001.08
2022,01,06,12,47,1001.12
2022,01,06,12,48,1001.05
2022,01,06,12,49,1000.79
2022,01,06,12,50,1000.68
2022,01,06,12,51,1000.68
2022,01,06,12,52,1000.78
2022,01,06,12,53,1000.94
2022,01,06,12,54,1001.02
2022,01,06,12,55,1000.95
2022,01,06,12,56,1000.71
2022,01,06,12,57,1000.64
2022,01,06,12,58,1000.54
2022,01,06,12,59,1000.64
2022,01,06,13,00,1000.61
2022,01,06,13,01,1000.68
2022,01,06,13,02,1000.61
2022,01,06,13,03,1000.64
2022,01,06,13,04,1000.51
2022,01,06,13,05,1000.44
2022,01,06,13,06,1000.41
2022,01,06,13,07,1000.41
2022,01,06,13,08,1000.48
2022,01,06,13,09,1000.34
2022,01,06,13,10,1000.34
2022,01,06,13,11,1000.24
2022,01,06,13,12,1000.24
2022,01,06,13,13,1000.27
2022,01,06,13,14,1000.34
2022,01,06,13,15,1000.44
2022,01,06,13,16,1000.37
2022,01,06,13,17,1000.27
2022,01,06,13,18,1000.24
2022,01,06,13,19,1000.27
2022,01,06,13,20,1000.34
2022,01,06,13,21,1000.37
2022,01,06,13,22,1000.34
2022,01,06,13,23,1000.34
2022,01,06,13,24,1000.24
2022,01,06,13,25,1000.14
2022,01,06,13,26,1000.24
2022,01,06,13,27,1000.17
2022,01,06,13,28,1000.14
2022,01,06,13,29,1000.17
2022,01,06,13,30,1000.14
2022,01,06,13,31,1000.10
2022,01,06,13,32,1000.10
2022,01,06,13,33,1000.17
2022,01,06,13,34,1000.14
2022,01,06,13,35,1000.10
2022,01,06,13,36,1000.07
2022,01,06,13,37,1000.03
2022,01,06,13,38,999.97
2022,01,06,13,39,999.97
2022,01,06,13,40,1000.00
2022,01,06,13,41,1000.07
2022,01,06,13,42,1000.03
2022,01,06,13,43,1000.03
2022,01,06,13,44,1000.07
2022,01,06,13,45,1000.07
2022,01,06,13,46,1000.10
2022,01,06,13,47,1000.10
2022,01,06,13,48,1000.10
2022,01,06,13,49,1000.07
2022,01,06,13,50,1000.03
2022,01,06,13,51,1000.00
2022,01,06,13,52,999.93
2022,01,06,13,53,999.90
2022,01,06,13,54,999.97
2022,01,06,13,55,999.90
2022,01,06,13,56,999.90
2022,01,06,13,57,999.90
2022,01,06,13,58,999.90
2022,01,06,13,59,999.87
2022,01,06,14,00,999.93
2022,01,06,14,01,999.93
2022,01,06,14,02,1000.00
2022,01,06,14,03,1000.00
2022,01,06,14,04,1000.07
2022,01,06,14,05,1000.03
2022,01,06,14,06,1000.10
2022,01,06,14,07,1000.00
2022,01,06,14,08,1000.07
2022,01,06,14,09,999.97
2022,01,06,14,10,999.90
2022,01,06,14,11,999.90
2022,01,06,14,12,999.90
2022,01,06,14,13,999.90
2022,01,06,14,14,999.80
2022,01,06,14,15,999.80
2022,01,06,14,16,999.90
2022,01,06,14,17,999.90
2022,01,06,14,18,999.90
2022,01,06,14,19,999.83
2022,01,06,14,20,999.76
2022,01,06,14,21,999.83
2022,01,06,14,22,999.97
2022,01,06,14,23,999.93
2022,01,06,14,24,999.87
2022,01,06,14,25,999.90
2022,01,06,14,26,999.87
2022,01,06,14,27,999.87
2022,01,06,14,28,999.93
2022,01,06,14,29,1000.03
2022,01,06,14,30,999.91
2022,01,06,14,31,999.97
2022,01,06,14,32,999.90
2022,01,06,14,33,999.83
2022,01,06,14,34,999.80
2022,01,06,14,35,999.83
2022,01,06,14,36,999.90
2022,01,06,14,37,999.87
2022,01,06,14,38,999.87
2022,01,06,14,39,999.87
2022,01,06,14,40,999.83
2022,01,06,14,41,999.80
2022,01,06,14,42,999.80
2022,01,06,14,43,999.76
2022,01,06,14,44,999.80
2022,01,06,14,45,999.76
2022,01,06,14,46,999.73
2022,01,06,14,47,999.76
2022,01,06,14,48,999.63
2022,01,06,14,49,999.59
2022,01,06,14,50,999.63
2022,01,06,14,51,999.66
2022,01,06,14,52,999.63
2022,01,06,14,53,999.66
2022,01,06,14,54,999.63
2022,01,06,14,55,999.59
2022,01,06,14,56,999.59
2022,01,06,14,57,999.59
2022,01,06,14,58,999.59
2022,01,06,14,59,999.56
2022,01,06,15,00,999.56
2022,01,06,15,01,999.53
2022,01,06,15,02,999.66
2022,01,06,15,03,999.66
2022,01,06,15,04,999.63
2022,01,06,15,05,999.59
2022,01,06,15,06,999.53
2022,01,06,15,07,999.63
2022,01,06,15,08,999.59
2022,01,06,15,09,999.56
2022,01,06,15,10,999.46
2022,01,06,15,11,999.43
2022,01,06,15,12,999.46
2022,01,06,15,13,999.36
2022,01,06,15,14,999.36
2022,01,06,15,15,999.32
2022,01,06,15,16,999.29
2022,01,06,15,17,999.29
2022,01,06,15,18,999.29
2022,01,06,15,19,999.22
2022,01,06,15,20,999.26
2022,01,06,15,21,999.22
2022,01,06,15,22,999.22
2022,01,06,15,23,999.22
2022,01,06,15,24,999.26
2022,01,06,15,25,999.26
2022,01,06,15,26,999.12
2022,01,06,15,27,999.09
2022,01,06,15,28,999.19
2022,01,06,15,29,999.12
2022,01,06,15,30,999.12
2022,01,06,15,31,999.12
2022,01,06,15,32,999.15
2022,01,06,15,33,999.12
2022,01,06,15,34,999.09
2022,01,06,15,35,999.12
2022,01,06,15,36,999.19
2022,01,06,15,37,999.09
2022,01,06,15,38,999.05
2022,01,06,15,39,999.09
2022,01,06,15,40,998.99
2022,01,06,15,41,999.02
2022,01,06,15,42,998.99
2022,01,06,15,43,998.95
2022,01,06,15,44,998.88
2022,01,06,15,45,998.85
2022,01,06,15,46,998.88
2022,01,06,15,47,998.92
2022,01,06,15,48,998.88
2022,01,06,15,49,998.95
2022,01,06,15,50,998.92
2022,01,06,15,51,998.88
2022,01,06,15,52,998.85
2022,01,06,15,53,998.88
2022,01,06,15,54,998.82
2022,01,06,15,55,998.82
2022,01,06,15,56,998.71
2022,01,06,15,57,998.82
2022,01,06,15,58,998.75
2022,01,06,15,59,998.78
2022,01,06,16,00,998.78
2022,01,06,16,01,998.71
2022,01,06,16,02,998.71
2022,01,06,16,03,998.65
2022,01,06,16,04,998.71
2022,01,06,16,05,998.75
2022,01,06,16,06,998.68
2022,01,06,16,07,998.65
2022,01,06,16,08,998.58
2022,01,06,16,09,998.51
2022,01,06,16,10,998.54
2022,01,06,16,11,998.51
2022,01,06,16,12,998.44
2022,01,06,16,13,998.48
2022,01,06,16,14,998.44
2022,01,06,16,15,998.41
2022,01,06,16,16,998.34
2022,01,06,16,17,998.41
2022,01,06,16,18,998.41
2022,01,06,16,19,998.34
2022,01,06,16,20,998.41
2022,01,06,16,21,998.38
2022,01,06,16,22,998.38
2022,01,06,16,23,998.41
2022,01,06,16,24,998.44
2022,01,06,16,25,998.41
2022,01,06,16,26,998.41
2022,01,06,16,27,998.27
2022,01,06,16,28,998.27
2022,01,06,16,29,998.34
2022,01,06,16,30,998.31
2022,01,06,16,31,998.31
2022,01,06,16,32,998.31
2022,01,06,16,33,998.27
2022,01,06,16,34,998.31
2022,01,06,16,35,998.24
2022,01,06,16,36,998.21
2022,01,06,16,37,998.21
2022,01,06,16,38,998.17
2022,01,06,16,39,998.14
2022,01,06,16,40,998.17
2022,01,06,16,41,998.07
2022,01,06,16,42,998.07
2022,01,06,16,43,998.10
2022,01,06,16,44,998.07
2022,01,06,16,45,998.10
2022,01,06,16,46,998.10
2022,01,06,16,47,997.97
2022,01,06,16,48,998.00
2022,01,06,16,49,997.97
2022,01,06,16,50,997.97
2022,01,06,16,51,998.00
2022,01,06,16,52,998.00
2022,01,06,16,53,997.97
2022,01,06,16,54,998.04
2022,01,06,16,55,998.07
2022,01,06,16,56,998.04
2022,01,06,16,57,998.04
2022,01,06,16,58,998.00
2022,01,06,16,59,998.04
2022,01,06,17,00,997.94
2022,01,06,17,01,997.94
2022,01,06,17,02,997.94
2022,01,06,17,03,997.97
2022,01,06,17,04,997.94
2022,01,06,17,05,997.87
2022,01,06,17,06,997.87
2022,01,06,17,07,997.80
2022,01,06,17,08,997.80
2022,01,06,17,09,997.73
2022,01,06,17,10,997.80
2022,01,06,17,11,997.70
2022,01,06,17,12,997.66
2022,01,06,17,13,997.60
2022,01,06,17,14,997.53
2022,01,06,17,15,997.63
2022,01,06,17,16,997.63
2022,01,06,17,17,997.63
2022,01,06,17,18,997.60
2022,01,06,17,19,997.53
2022,01,06,17,20,997.60
2022,01,06,17,21,997.53
2022,01,06,17,22,997.50
2022,01,06,17,23,997.46
2022,01,06,17,24,997.39
2022,01,06,17,25,997.26
2022,01,06,17,26,997.22
2022,01,06,17,27,997.29
2022,01,06,17,28,997.26
2022,01,06,17,29,997.26
2022,01,06,17,30,997.26
2022,01,06,17,31,997.22
2022,01,06,17,32,997.16
2022,01,06,17,33,997.09
2022,01,06,17,34,997.16
2022,01,06,17,35,997.12
2022,01,06,17,36,997.02
2022,01,06,17,37,996.99
2022,01,06,17,38,996.95
2022,01,06,17,39,996.92
2022,01,06,17,40,996.92
2022,01,06,17,41,996.89
2022,01,06,17,42,996.85
2022,01,06,17,43,996.85
2022,01,06,17,44,996.92
2022,01,06,17,45,996.89
2022,01,06,17,46,996.89
2022,01,06,17,47,996.85
2022,01,06,17,48,996.78
2022,01,06,17,49,996.78
2022,01,06,17,50,996.78
2022,01,06,17,51,996.75
2022,01,06,17,52,996.82
2022,01,06,17,53,996.68
2022,01,06,17,54,996.72
2022,01,06,17,55,996.78
2022,01,06,17,56,996.75
2022,01,06,17,57,996.82
2022,01,06,17,58,996.75
2022,01,06,17,59,996.78
2022,01,06,18,00,996.78
2022,01,06,18,01,996.72
2022,01,06,18,02,996.68
2022,01,06,18,03,996.68
2022,01,06,18,04,996.65
2022,01,06,18,05,996.58
2022,01,06,18,06,996.68
2022,01,06,18,07,996.61
2022,01,06,18,08,996.55
2022,01,06,18,09,996.58
2022,01,06,18,10,996.51
2022,01,06,18,11,996.55
2022,01,06,18,12,996.45
2022,01,06,18,13,996.51
2022,01,06,18,14,996.48
2022,01,06,18,15,996.55
2022,01,06,18,16,996.55
2022,01,06,18,17,996.55
2022,01,06,18,18,996.45
2022,01,06,18,19,996.45
2022,01,06,18,20,996.45
2022,01,06,18,21,996.41
2022,01,06,18,22,996.34
2022,01,06,18,23,996.38
2022,01,06,18,24,996.31
2022,01,06,18,25,996.31
2022,01,06,18,26,996.31
2022,01,06,18,27,996.28
2022,01,06,18,28,996.28
2022,01,06,18,29,996.24
2022,01,06,18,30,996.21
2022,01,06,18,31,996.31
2022,01,06,18,32,996.34
2022,01,06,18,33,996.28
2022,01,06,18,34,996.31
2022,01,06,18,35,996.28
2022,01,06,18,36,996.24
2022,01,06,18,37,996.21
2022,01,06,18,38,996.21
2022,01,06,18,39,996.17
2022,01,06,18,40,996.14
2022,01,06,18,41,996.11
2022,01,06,18,42,996.11
2022,01,06,18,43,996.11
2022,01,06,18,44,996.04
2022,01,06,18,45,996.07